Regional Weather Roundup
Issued by NWS Burlington, VT

Home | Current Version | Previous Version | Text Only | Print | Product List | Glossary On
Versions: 1 2 3 4 5 6 7 8 9 10 11 12 13 14 15 16 17 18 19 20 21 22 23 24 25 26 27 28 29 30 31 32 33 34 35 36 37 38 39 40 41 42 43 44 45 46 47 48 49 50
000
ASUS41 KBTV 022330
RWRBTV
VERMONT REGIONAL WEATHER ROUNDUP
NATIONAL WEATHER SERVICE BURLINGTON VT
700 PM EDT TUE SEP 02 2014

NOTE: "FAIR" INDICATES FEW OR NO CLOUDS BELOW 12,000 FEET WITH NO
SIGNIFICANT WEATHER AND/OR OBSTRUCTIONS TO VISIBILITY.

* THESE REPORTS ARE NOT UNDER NWS QUALITY CONTROL AND/OR DO NOT
  REPORT WEATHER SUCH AS PRECIPITATION AND FOG.

VTZ001>019-030000-
_____VERMONT_____


CITY           SKY/WX    TMP DP  RH WIND       PRES   REMARKS
BURLINGTON     CLOUDY    82  69  64 S7        29.70F
MONTPELIER     PTCLDY    76  67  73 S7        29.80F
MORRISVILLE    PTCLDY    75  65  70 CALM      29.74F
ST. JOHNSBURY*   N/A     79  68  69 MISG      29.72F
MIDDLEBURY*    FAIR      78  70  75 S5        29.73F
RUTLAND*       PTCLDY    75  68  78 SE5       29.75F
SPRINGFIELD    CLEAR     79  70  74 CALM      29.76F
HIGHGATE*      LGT RAIN  77  70  78 CALM      29.69F
NEWPORT*       FAIR      73  67  81 SE3       29.74F
BENNINGTON     CLEAR     79  69  71 CALM      29.76F
SUTTON*          N/A     75 N/A N/A MISG        N/A
GALLUP MILLS*    N/A      0 N/A N/A MISG        N/A
UNION VILLAGE*   N/A     73 N/A N/A MISG        N/A
MT. MANSFIELD*   N/A     66 N/A N/A SW8         N/A

_____LAKE CHAMPLAIN_____


CITY           SKY/WX    TMP DP  RH WIND       PRES   REMARKS
BURTON ISLAND*   N/A     77  70  78 W3G13       N/A
COLCHESTER RF*   N/A     81  70  69 W13         N/A
DIAMOND ISL*     N/A     81  72  74 S9          N/A

$$

NYZ007-026>031-035-052-083-030000-
_____NORTHERN NEW YORK_____


CITY           SKY/WX    TMP DP  RH WIND       PRES   REMARKS
PLATTSBURGH    LGT RAIN  79  67  66 NW8       29.71R
SARANAC LAKE   CLOUDY    68  66  93 W5        29.78F
MASSENA        LGT RAIN  66  64  93 W3        29.77R
OGDENSBURG*    LGT RAIN  66  64  94 SW6       29.78S
POTSDAM*       HVY RAIN  64  64 100 SW5       29.80R
PARISHVILLE*     N/A     68 N/A N/A NW12        N/A
WATERTOWN      LGT RAIN  68  63  84 CALM      29.81R
FT DRUM        LGT RAIN  64  64 100 W5        29.82R
ALBANY         PTCLDY    82  71  69 S3        29.73F
GLENS FALLS    PTCLDY    80  70  71 S6        29.72F

$$
NHZ002-005-011-030000-
_____NEW HAMPSHIRE_____


CITY           SKY/WX    TMP DP  RH WIND       PRES   REMARKS
LEBANON        CLEAR     79  68  69 S8        29.75F
KEENE          PTCLDY    77  66  69 CALM      29.78S
MT WASHINGTON  PTCLDY    57  55  94 W21         N/A
PLYMOUTH       FAIR      75  73  92 CALM      29.75F
WHITEFIELD     CLEAR     79  65  62 SW6       29.77F

$$

_____REGIONAL QUEBEC LOCATIONS_____


CITY           SKY/WX    TMP DP  RH WIND       PRES   REMARKS
MONTREAL       LGT RAIN  68  64  88 NW8       29.74R
QUEBEC CITY    LGT RAIN  70  66  88 W8        29.68R
SHERBROOKE     PTCLDY    77  66  69 W6        29.73S

_____REGIONAL ONTARIO LOCATIONS_____


CITY           SKY/WX    TMP DP  RH WIND       PRES   REMARKS
OTTAWA         LGT RAIN  66  66 100 SW5       29.76S

______KEY______
VSB  - VISIBILITY IN MILES
WCI  - WIND CHILL INDEX
HX   - HEAT INDEX
$$
NNNN


USA.gov is the U.S. government's official web portal to all federal, state and local government web resources and services.